Siemreap, Cambodia

5:38 AM +07 on August 22, 2017 (GMT +0700)
Siem Reap

Weather History for VDSR - August, 2013

Change the Weather History Date:

Tuesday, August 20, 2013

  Actual Average Record
Temperature  
Mean Temperature 84 °F -  
Max Temperature 89 °F - - ()
Min Temperature 80 °F - - ()
Cooling Degree Days 20    
Growing Degree Days 34 (Base 50)    
Moisture  
Dew Point 72 °F    
Average Humidity 67    
Maximum Humidity 79    
Minimum Humidity 55    
Precipitation  
Precipitation 0.00 in - - ()
Sea Level Pressure  
Sea Level Pressure 29.67 in    
Wind  
Wind Speed 7 mph ()    
Max Wind Speed 17 mph    
Max Gust Speed 17 mph    
Visibility 6.2 miles    
Events      
T = Trace of Precipitation, MM = Missing Value Source: Averaged Metar Reports

Daily Weather History Graph

Daily Weather History Graph

Search for Another Location

Airport or City:

Trip Planner

Search our weather history database for the weather conditions in past years. The results will help you decide how hot, cold, wet, or windy it might be!

Date:

Astronomy

Aug. 20, 2013 Rise Set
Actual Time 5:52 AM +07 6:23 PM +07
Civil Twilight 5:30 AM +07 6:45 PM +07
Nautical Twilight 5:05 AM +07 7:10 PM +07
Astronomical Twilight 4:39 AM +07 7:36 PM +07
Moon 5:38 PM +07 (8/20) 4:45 AM +07 (8/20)
Length of Visible Light 13h 14m
Length of Day
12h 30m
Waxing Gibbous, 99% of the Moon is Illuminated
Aug 20
Waxing Gibbous
Aug 21
Full
Aug 28
Last Quarter
Sep 5
New
Sep 13
First Quarter

Hourly Weather History & Observations

Time (+07) Temp. Heat Index Dew Point Humidity Pressure Visibility Wind Dir Wind Speed Gust Speed Precip Events Conditions
12:00 AM 82.4 °F 88.2 °F 73.4 °F 74% 29.71 in 6.2 mi WSW 1.2 mph 13.8 mph N/A   Scattered Clouds
12:30 AM 80.6 °F 84.6 °F 71.6 °F 74% 29.71 in 6.2 mi Calm Calm - N/A   Scattered Clouds
1:00 AM 80.6 °F 84.6 °F 71.6 °F 74% 29.68 in 6.2 mi WSW 8.1 mph - N/A   Scattered Clouds
7:00 AM 80.6 °F 85.4 °F 73.4 °F 79% 29.68 in 6.2 mi Calm Calm - N/A   Scattered Clouds
7:30 AM 80.6 °F 85.4 °F 73.4 °F 79% 29.68 in - Calm Calm - N/A   Clear
8:00 AM 82.4 °F 87.2 °F 71.6 °F 70% 29.71 in - Calm Calm - N/A   Clear
10:30 AM 86.0 °F 91.8 °F 71.6 °F 62% 29.74 in 6.2 mi West 5.8 mph 17.3 mph N/A   Scattered Clouds
11:00 AM 87.8 °F 93.8 °F 71.6 °F 58% 29.71 in 6.2 mi West 5.8 mph 17.3 mph N/A   Scattered Clouds
11:30 AM 87.8 °F 93.8 °F 71.6 °F 58% 29.71 in 6.2 mi West 12.7 mph - N/A   Scattered Clouds
12:00 PM 87.8 °F 92.6 °F 69.8 °F 55% 29.68 in 6.2 mi West 17.3 mph - N/A   Scattered Clouds
12:30 PM 87.8 °F 92.6 °F 69.8 °F 55% 29.68 in 6.2 mi West 17.3 mph - N/A   Scattered Clouds
1:00 PM 87.8 °F 92.6 °F 69.8 °F 55% 29.68 in 6.2 mi West 15.0 mph - N/A   Scattered Clouds
1:30 PM 87.8 °F 92.6 °F 69.8 °F 55% 29.68 in 6.2 mi West 15.0 mph - N/A   Scattered Clouds
2:00 PM 87.8 °F 92.6 °F 69.8 °F 55% 29.65 in 6.2 mi West 15.0 mph - N/A   Scattered Clouds
2:30 PM 89.6 °F 98.2 °F 73.4 °F 59% 29.65 in 6.2 mi West 15.0 mph - N/A   Scattered Clouds
3:00 PM 89.6 °F 96.2 °F 71.6 °F 55% 29.65 in 6.2 mi West 9.2 mph - N/A   Scattered Clouds
3:30 PM 87.8 °F 93.8 °F 71.6 °F 58% 29.62 in 6.2 mi West 9.2 mph - N/A   Scattered Clouds
4:00 PM 87.8 °F 95.6 °F 73.4 °F 62% 29.62 in 6.2 mi West 10.4 mph - N/A   Scattered Clouds
4:30 PM 87.8 °F 95.6 °F 73.4 °F 62% 29.62 in 6.2 mi WSW 10.4 mph - N/A   Scattered Clouds
5:00 PM 87.8 °F 93.8 °F 71.6 °F 58% 29.62 in 6.2 mi West 10.4 mph - N/A   Scattered Clouds
5:30 PM 87.8 °F 95.6 °F 73.4 °F 62% 29.62 in 6.2 mi West 8.1 mph - N/A   Scattered Clouds
6:00 PM 86.0 °F 95.1 °F 75.2 °F 70% 29.62 in 6.2 mi WSW 8.1 mph - N/A   Scattered Clouds
6:30 PM 84.2 °F 92.3 °F 75.2 °F 74% 29.65 in 6.2 mi WSW 6.9 mph - N/A   Scattered Clouds
7:00 PM 84.2 °F 90.9 °F 73.4 °F 70% 29.65 in 6.2 mi WSW 10.4 mph - N/A   Scattered Clouds
7:30 PM 84.2 °F 90.9 °F 73.4 °F 70% 29.65 in 6.2 mi SW 6.9 mph - N/A   Scattered Clouds
8:00 PM 82.4 °F 88.2 °F 73.4 °F 74% 29.65 in 6.2 mi WSW 9.2 mph - N/A   Scattered Clouds
8:30 PM 82.4 °F 88.2 °F 73.4 °F 74% 29.68 in 6.2 mi WSW 8.1 mph - N/A   Scattered Clouds
9:00 PM 82.4 °F 88.2 °F 73.4 °F 74% 29.68 in 6.2 mi SW 6.9 mph - N/A   Scattered Clouds
9:30 PM 82.4 °F 88.2 °F 73.4 °F 74% 29.71 in 6.2 mi SW 6.9 mph - N/A   Scattered Clouds
10:00 PM 82.4 °F 88.2 °F 73.4 °F 74% 29.71 in 6.2 mi WSW 9.2 mph - N/A   Scattered Clouds
10:30 PM 82.4 °F 88.2 °F 73.4 °F 74% 29.71 in 6.2 mi WSW 10.4 mph - N/A   Scattered Clouds
11:00 PM 82.4 °F 88.2 °F 73.4 °F 74% 29.71 in 6.2 mi WSW 10.4 mph - N/A   Scattered Clouds
11:30 PM 82.4 °F 88.2 °F 73.4 °F 74% 29.71 in 6.2 mi WSW 10.4 mph - N/A   Scattered Clouds